Terminal Aerodrome Forecast
Issued by NWS

Home | Current Version | Previous Version | Text Only | Print | Product List | Glossary On
Versions: 1 2 3 4 5 6 7 8 9 10 11 12
000
FTUS46 KSTO 272300
TAFRBL
TAF
KRBL 272333Z 2800/2824 17008KT P6SM SCT060
     FM280700 33011KT P6SM BKN200
     FM281800 34012G20KT P6SM SKC=

USA.gov is the U.S. government's official web portal to all federal, state and local government web resources and services.